STARLINK-34791, 65891

Orbit data source: Space-Track

STARLINK-34791, 65891 is a payload satellite owned by SpaceX/Seattle (US) in LEO that was launched on Tue, 07 Oct 2025 UTC via an FALCON 9 launch vehicle from the Air Force Eastern Test Range (AFETR). Payload-class satellites include a variety of spacecraft equipped with specific instruments for various scientific and technological missions. These include communications satellites like Starlink; space stations such as the ISS; scientific satellites like the Hubble; Earth observation satellites from companies like Planet Labs, Umbra, and HawkEye 360; GPS; miniature CubeSats for education and research; and military/defense satellites.

Loading next visibility...
Identifier
65891, 2025-224K
Orbit
LEO
Country
Flag of USUS
Related business
Manufacturer
SpaceX/Seattle
Mission
Operational Commercial Communications
Bus & Motor
STARLINK V2MO, Unknown motor
Mass
575 kg wet, ~530 kg dry
Launch date (UTC)
2025-10-07 (5 months ago)
Launch vehicle
FALCON 9
Launch site
Air Force Eastern Test Range (AFETR)
Object type
Payload
Rocket body
Debris
Shape & HBR
Box + 2 Pan, 17.7 m
Radar Cross Section
36.964 m²

Expand to show TLE details & history
Last TLE update: 15 hours ago

TLE from 15 hours ago
0 STARLINK-34791
1 65891U 25224K   26062.18491331  .00038072  00000-0  12902-2 0  9996
2 65891  53.1605  41.8960 0001129 102.3174 257.7953 15.30220353 23872
Epoch: 2026-03-03T04:26Z
TLE epoch observation values (Epoch: 2026-03-03T04:26:16.509Z)
Latitude
-0.00001°
Longitude
174.35959°
Altitude
476.218 km
Speed
7.629 km/s
True Right ascension
02h 47m 35s
True Declination
0° 00' 00"
Sunlit
Object was in daylight at epoch
Visualization orbit readout
Latitude
Unknown
Longitude
Unknown
Altitude
Unknown
Speed
Unknown
Apparent Right ascension
Unknown
Apparent Declination
Unknown
Sunlit
N/A
Visualization observer readout
Local Sidereal Time
23:10:44
Azimuth
Unknown
Elevation
Unknown
Doppler factor
Unknown
Orbital elements
Apogee altitude
476.184 km
Perigee altitude
474.637 km
Semi-major axis
6,853.548 km
Eccentricity
0.00011
Inclination
53.1605°
RAAN
41.896°
Arg. of periapsis
102.3174°
True anomaly
257.78266°
Mean anomaly
257.7953°
Eccentric anomaly
257.78898°
Mean motion
3.82534 °/min
Orbital period
94.11 mins
BSTAR
0.0012902
Loading maneuver chart data...
Computing Atmospheric mass density...
Loading historical data...
Loading historical data...
Loading historical data...
Loading historical data...
Loading historical data...
Loading historical data...
Loading historical data...

Documentation

Showing up to 5 results
|